Portada
METAR-TAF:

METAR-TAF

Aeroports :

Jayapura, Indonèsia

latitud: 02-34-37S, longitud: 140-30-58E, altitud: 88 m

Observació

L'informe es va fer fa 38 minuts, a les 13:30 UTC
Vent calma
Temperatura 27°C
Humitat 84%
Pressió 1009 hPa
Visibilitat 10 km o més
Escasses núvols a una alçada de 1200 ft

METAR: WAJJ 261330Z 00000KT 9999 FEW012 27/24 Q1009 NOSIG

Hora: 21:08 (14:08 UTC)


TAF: manca

Observacions i pronòstics meteorològics de més de 4000 aeroports (METAR i TAF).

Les estacions disponibles són els punts grocs i vermells al mapa.

Posi el ratolí al punt desitjat per veure el nom de l'estació.

Feu clic per veure les observacions i els pronòstics meteorològics.

Per canviar el mapa: feu clic els botons verds amb una creu de color negre per apropar; al botó verd amb un guió per allunyar la imatge; o en les fletxes verdes per a mapes adjacents.


METAR-TAF: